Location: �rone
(42.3714°N, 9.2696°E)
Time: 08:15:55
(UTC+00:00)

Daily predictions for brighter satellites

Satellite Brightness Start Highest point End
(mag) Time Altitude Azimuth Time Altitude Azimuth Time Altitude Azimuth
COSMOS 2428 4.1 18:03:42 10° SW 18:09:08 44° WNW 18:14:36 10° NNE
STARLINK-1239 3.7 18:05:55 10° SW 18:09:51 57° SE 18:13:49 10° ENE
STARLINK-1206 3.0 18:07:07 10° WSW 18:10:13 79° NW 18:13:21 10° NE
STARLINK-1247 3.0 18:07:34 10° WSW 18:10:40 78° NW 18:13:47 10° NE
ISS -1.4 18:08:35 10° NW 18:10:51 17° N 18:13:06 10° NE
SJ-6B 4.4 18:08:10 10° ESE 18:11:00 19° ENE 18:13:53 10° NNE
STARLINK-1227 3.0 18:07:58 10° WSW 18:11:05 77° NW 18:14:14 10° NE
STARLINK-1218 3.0 18:08:27 10° WSW 18:11:33 77° NW 18:14:41 10° NE
Cosmos 2369 Rocket 4.2 18:10:10 10° NNE 18:11:53 11° NE 18:13:36 10° ENE
CZ-2C R/B 3.9 18:07:41 10° SE 18:11:59 29° ENE 18:16:08 10° N
STARLINK-1226 3.0 18:08:56 10° WSW 18:12:02 76° NW 18:15:10 10° NE
STARLINK-1254 3.1 18:09:19 10° WSW 18:12:26 75° NW 18:15:35 10° NE
STARLINK-1215 3.1 18:09:49 10° WSW 18:12:56 74° NW 18:16:03 10° NE
STARLINK-1231 3.1 18:10:15 10° WSW 18:13:22 73° NW 18:16:29 10° NE
Cosmos 304 Rocket 4.4 18:09:09 10° N 18:13:36 37° ENE 18:18:01 10° SE
Cosmos 1048 Rocket 4.0 18:08:43 10° SSW 18:13:50 86° ESE 18:19:03 10° NNE
STARLINK-1232 3.1 18:11:10 10° WSW 18:14:16 72° NW 18:17:23 10° NE
STARLINK-1240 3.6 18:10:29 10° SW 18:14:27 63° SE 18:18:25 10° ENE
STARLINK-1217 3.1 18:11:37 10° WSW 18:14:44 71° NW 18:17:51 10° NE
STARLINK-1208 3.1 18:12:03 10° WSW 18:15:09 71° NW 18:18:17 10° NE
STARLINK-1229 3.2 18:12:31 10° WSW 18:15:37 70° NW 18:18:44 10° NE
Meteor 1-22 Rocket 4.4 18:11:00 10° SSE 18:15:59 42° E 18:20:56 10° NNE
STARLINK-1271 3.2 18:12:59 10° WSW 18:16:05 69° NW 18:19:12 10° NE
STARLINK-1270 3.2 18:13:26 10° WSW 18:16:32 68° NW 18:19:39 10° NE
CSL-04 Debris 4.4 18:11:17 10° S 18:16:46 79° WSW 18:22:17 10° NNW
STARLINK-1154 3.2 18:13:53 10° WSW 18:16:58 68° NW 18:20:05 10° NE
STARLINK-1197 3.2 18:14:47 10° WSW 18:17:53 66° NW 18:20:59 10° NE
Cosmos 1939 Rocket 3.6 18:14:01 10° S 18:17:57 58° W 18:21:51 10° NNW
STARLINK-1189 3.3 18:15:15 10° WSW 18:18:20 66° NW 18:21:27 10° NE
STARLINK-1216 3.5 18:15:04 10° SW 18:19:03 69° SE 18:23:03 10° ENE
STARLINK-1187 3.5 18:16:07 10° WSW 18:19:12 56° NNW 18:22:18 10° NE
STARLINK-1188 3.3 18:16:09 10° WSW 18:19:14 64° NW 18:22:20 10° NE
STARLINK-1198 3.3 18:16:24 10° WSW 18:19:29 64° NNW 18:22:35 10° NE
STARLINK-1235 3.8 18:16:51 10° WSW 18:19:54 49° NNW 18:22:59 10° NE
Cosmos 494 Rocket 4.0 18:15:11 10° S 18:20:12 57° ESE 18:25:16 10° NNE
Abrixas rocket 3.9 18:19:29 10° S 18:21:04 14° SE 18:22:34 10° ESE
STARLINK-1199 3.4 18:18:06 10° WSW 18:21:11 62° NW 18:24:18 10° NE
Cosmos 1733 3.5 18:17:44 10° SSE 18:21:17 41° E 18:24:52 10° NNE
STARLINK-1191 3.4 18:18:33 10° WSW 18:21:39 61° NW 18:24:46 10° NE
STARLINK-1210 3.4 18:19:00 10° WSW 18:22:05 61° NW 18:25:12 10° NE
STARLINK-1221 3.4 18:19:28 10° WSW 18:22:33 60° NW 18:25:41 10° NE
Cosmos 371 Rocket 3.4 18:17:51 10° NNW 18:22:42 84° WSW 18:27:32 10° SSE
STARLINK-1219 3.4 18:19:55 10° WSW 18:23:00 59° NNW 18:26:07 10° NE
STARLINK-1222 3.5 18:20:21 10° WSW 18:23:26 59° NW 18:26:33 10° NE
STARLINK-67 4.5 18:21:17 10° W 18:23:31 26° NNW 18:25:47 10° NNE
Cosmos 1452 Rocket 4.2 18:18:31 10° NNW 18:23:42 59° WSW 18:28:51 10° S
STARLINK-1237 3.5 18:19:41 10° SW 18:23:42 75° SE 18:27:43 10° NE
STARLINK-1211 3.5 18:20:49 10° WSW 18:23:54 58° NNW 18:27:00 10° NE
FREGAT/IRIS 3.6 18:21:42 10° SE 18:23:55 23° ENE 18:26:09 10° NNE
USA 81 4.1 18:18:46 10° N 18:23:58 57° E 18:29:09 10° SSE
STARLINK-1214 3.5 18:21:16 10° WSW 18:24:21 58° NNW 18:27:28 10° NE
STARLINK-1245 3.5 18:21:46 10° WSW 18:24:50 57° NNW 18:27:55 10° NE
STARLINK-1238 3.5 18:22:12 10° WSW 18:25:15 56° NW 18:28:22 10° NE
STARLINK-1205 3.5 18:23:09 10° WSW 18:26:12 55° NNW 18:29:16 10° NE
STARLINK-1204 3.6 18:23:34 10° WSW 18:26:37 55° NNW 18:29:42 10° NE
Cosmos 1709 Rocket 4.5 18:21:02 10° N 18:26:48 38° ENE 18:32:28 10° SE
Cosmos 2219 Rocket 4.3 18:22:32 10° WSW 18:27:27 30° NW 18:32:23 10° N
Cosmos 1331 Rocket 4.2 18:23:00 10° N 18:28:03 52° ENE 18:33:04 10° SE
STARLINK-1202 3.5 18:24:17 10° SW 18:28:18 82° SE 18:32:20 10° NE
Cosmos 1674 2.6 18:25:37 10° N 18:29:23 89° E 18:33:06 10° S
STARLINK-1125 4.5 18:25:54 10° NW 18:29:41 37° NNE 18:33:02 12° E
Orbus 7S? 2.4 18:27:29 10° NW 18:30:24 78° SW 18:32:46 10° SE
SL-14 R/B 4.1 18:27:30 10° N 18:31:10 32° ENE 18:34:48 10° SE
KORONAS-FOTON 3.7 18:28:40 10° N 18:32:31 88° E 18:36:19 10° S
STARLINK-1246 3.5 18:29:14 10° SW 18:33:17 89° SSE 18:37:22 10° NE
STARLINK-1109 4.4 18:30:11 10° NW 18:34:00 38° NNE 18:37:10 14° E
Cosmos 1980 4.4 18:31:10 10° SW 18:36:46 60° WNW 18:42:25 10° NNE
Cosmos 1766 3.4 18:32:57 10° S 18:36:57 83° W 18:40:57 10° N
Cosmos 1943 Rocket 3.6 18:34:06 10° N 18:38:09 20° NE 18:41:19 13° E
STARLINK-1091 4.3 18:34:50 10° NW 18:38:41 41° NNE 18:41:39 16° E
S3M 4.1 18:32:19 10° S 18:38:41 90° NW 18:45:08 10° N
Ariane Rocket 3.0 18:35:27 10° SSE 18:40:30 73° ENE 18:45:34 10° N
YAOGAN 1 4.5 18:36:55 10° SSW 18:40:49 33° W 18:44:45 10° NNW
STARLINK-1224 3.6 18:38:13 10° WSW 18:42:14 79° NW 18:46:17 10° NE
Cosmos 1455 Rocket 2.9 18:39:34 10° S 18:43:53 77° E 18:48:15 10° N
BREEZE-M DEB (TANK) 3.4 18:32:34 10° WNW 18:44:33 72° SW 18:47:18 15° SE
Cosmos 1386 Rocket 4.4 18:38:55 10° N 18:45:00 88° E 18:51:00 10° S
SL-08 ROCKET BODY 4.4 18:39:03 10° N 18:45:13 87° E 18:51:14 10° S
STARLINK-1225 3.8 18:42:55 10° WSW 18:46:57 73° NW 18:50:59 10° NE
STARLINK-1203 3.9 18:45:00 10° WSW 18:48:54 64° NW 18:52:50 10° NE
Cosmos 1110 Rocket 4.0 18:43:41 10° NNW 18:48:58 88° ENE 18:54:10 10° SSE
Cosmos 332 Rocket 4.4 18:45:17 10° NNW 18:50:08 61° WSW 18:54:58 10° S
SL-16 R/B 2.2 18:44:36 10° S 18:50:10 62° ESE 18:55:46 10° NNE
STARLINK-1230 3.9 18:47:34 10° WSW 18:51:36 67° NNW 18:55:37 10° NE
STARLINK-1072 4.0 18:47:59 10° NW 18:51:53 49° NNE 18:54:14 21° E
Cosmos 1892 Rocket 3.9 18:48:06 10° NNW 18:52:34 69° W 18:57:01 10° S
USA 186 1.8 18:49:36 10° SSE 18:53:00 70° ENE 18:56:25 10° N
ARGOS Delta rocket 4.1 18:48:55 10° S 18:53:57 86° W 18:59:18 10° NNW
Cosmos 1953 3.6 18:53:53 20° E 18:53:58 20° E 18:56:54 10° NE
Cosmos 1626 Rocket 4.0 18:50:01 10° N 18:54:10 40° ENE 18:57:13 17° SE
STARLINK-1243 4.0 18:52:17 10° WSW 18:56:18 62° NNW 19:00:18 10° NE
STARLINK-1096 3.9 18:52:25 10° NW 18:56:21 53° NNE 18:58:31 24° E
Cosmos 1626 2.1 18:53:25 10° N 18:57:06 61° E 19:00:21 13° SSE
Aureole 3 4.3 18:57:25 21° SE 18:59:09 29° E 19:03:14 10° NNE
Okean 1-7 Rocket 3.9 18:56:06 10° NNW 19:00:29 66° W 19:04:49 10° S
STARLINK-1079 3.8 18:56:54 10° NW 19:00:50 57° NNE 19:02:49 27° E
STARLINK-1236 4.1 18:56:59 10° WSW 19:00:58 58° NNW 19:04:57 10° NE
Cosmos 1602 Rocket 4.1 18:57:33 10° N 19:01:44 38° ENE 19:03:55 23° SE
H-2A R/B 2.1 18:59:26 10° SSE 19:04:48 83° WSW 19:10:03 10° NNW
STARLINK-1116 3.7 19:01:21 10° NW 19:05:20 61° NNE 19:07:08 30° ESE
DMSP B5D2-2 4.4 19:02:29 10° NNE 19:07:23 40° E 19:12:16 10° SSE
STARLINK-1269 4.4 19:06:28 10° WSW 19:10:24 50° NNW 19:14:21 10° NE
Aureole 2 Rocket 4.4 19:08:48 10° NNE 19:10:31 15° NE 19:10:31 15° NE
STARLINK-1118 3.8 19:09:22 10° WNW 19:11:15 24° SW 19:11:31 23° SSW
Cosmos 1544 Rocket 3.8 19:06:58 10° SSW 19:11:19 72° W 19:15:45 10° N
STARLINK-1094 3.5 19:10:19 10° NW 19:14:19 71° NE 19:15:46 37° ESE
USA 234 3.2 19:09:13 10° NE 19:15:48 89° SE 19:22:21 10° SW
Cosmos 2297 3.7 19:11:04 10° NNW 19:16:47 87° ENE 19:20:56 19° SSE
CZ-2C R/B 3.7 19:12:14 10° NNE 19:16:59 70° ESE 19:21:39 10° S
STARLINK-1117 3.5 19:14:49 10° NW 19:18:51 77° NE 19:20:06 42° ESE
Cosmos 2237 Rocket 4.2 19:15:50 10° WSW 19:20:44 30° NW 19:25:41 10° N
STARLINK-1078 3.4 19:19:18 10° NW 19:23:20 83° NE 19:24:26 47° ESE
Cosmos 1302 Rocket 3.9 19:21:13 10° NNW 19:26:31 89° ENE 19:29:43 25° SSE
STARLINK-1108 3.4 19:23:50 10° NW 19:27:52 89° NNE 19:28:47 52° SE
CZ-2C R/B 2.6 19:24:00 10° NNE 19:29:04 53° E 19:32:38 19° S
Cosmos 2184 Rocket 4.3 19:23:58 10° N 19:30:02 46° ENE 19:32:14 34° ESE
Cosmos 1758 Rocket 4.3 19:26:24 10° N 19:30:09 34° ENE 19:30:09 34° ENE
STARLINK-1066 3.5 19:29:08 10° WNW 19:32:11 47° SW 19:32:18 47° SSW
STARLINK-1071 3.4 19:28:21 10° NW 19:32:23 84° SW 19:33:08 58° SE
STARLINK-1081 3.5 19:29:36 10° WNW 19:32:37 46° SW 19:32:41 46° SW
ARGOS 3.7 19:27:38 10° S 19:32:57 57° W 19:38:16 10° NNW
STARLINK-1070 3.5 19:30:03 10° WNW 19:33:04 46° SW 19:33:06 45° SW
STARLINK-1124 3.5 19:29:15 10° NW 19:33:25 83° SW 19:34:14 56° SE
STARLINK-1069 3.6 19:30:28 10° WNW 19:33:30 45° SW 19:33:34 45° SW
STARLINK-1085 3.6 19:30:54 10° WNW 19:33:57 45° SW 19:34:00 45° SW
STARLINK-1086 3.6 19:31:26 10° WNW 19:34:25 44° SW 19:34:25 44° SW
Cosmos 2251 Rocket 3.6 19:29:18 10° S 19:34:27 52° ESE 19:39:40 10° NNE
STARLINK-1095 3.6 19:31:52 10° WNW 19:34:51 44° SW 19:34:51 44° SW
STARLINK-1077 3.7 19:32:18 10° WNW 19:35:16 43° SW 19:35:16 43° SW
STARLINK-1075 3.7 19:32:47 10° WNW 19:35:42 43° SW 19:35:42 43° SW
STARLINK-1093 3.7 19:33:11 10° WNW 19:36:10 43° SW 19:36:10 43° SW
STARLINK-1074 3.7 19:33:38 10° WNW 19:36:36 42° SW 19:36:36 42° SW
STARLINK-1110 3.5 19:32:52 10° NW 19:36:54 78° SW 19:37:29 62° SSE
STARLINK-1087 3.8 19:34:08 10° WNW 19:37:00 41° SW 19:37:00 41° SW
STARLINK-1088 3.8 19:34:36 10° WNW 19:37:26 41° SW 19:37:26 41° SW
STARLINK-1115 3.8 19:35:01 10° WNW 19:37:55 41° SW 19:37:55 41° SW
STARLINK-1076 3.9 19:35:27 10° WNW 19:38:20 40° SW 19:38:20 40° SW
SL-24 R/B 4.1 19:34:16 10° N 19:38:53 77° WNW 19:42:53 10° SSW
STARLINK-1092 3.9 19:35:55 10° WNW 19:38:47 40° SW 19:38:47 40° SW
STARLINK-1080 3.9 19:36:24 10° WNW 19:39:10 39° SW 19:39:10 39° SW
STARLINK-1090 4.0 19:36:51 10° WNW 19:39:36 38° SW 19:39:36 38° SW
Cosmos 1470 3.6 19:36:30 10° SSW 19:40:14 50° W 19:44:03 10° N
STARLINK-1089 4.0 19:37:19 10° WNW 19:40:02 38° SW 19:40:02 38° SW
STARLINK-1107 4.0 19:37:45 10° WNW 19:40:28 37° SW 19:40:28 37° SW
SL-08 RB Rocket 4.4 19:40:53 17° S 19:44:10 53° W 19:48:38 10° NNW
SJ-6B 4.3 19:42:00 12° SSW 19:45:21 37° W 19:49:12 10° NNW
MetOp-A 4.2 19:42:29 25° S 19:45:41 78° WSW 19:51:04 10° NNW
Resurs 1-3 3.6 19:44:43 45° S 19:46:03 82° WSW 19:50:27 10° NNW
STARLINK-1122 3.6 19:42:03 10° WNW 19:46:03 65° SW 19:46:17 64° SSW
Cosmos 1758 4.4 19:44:13 10° SSW 19:48:09 46° WNW 19:52:08 10° N
ISS -2.0 19:45:38 10° NW 19:48:11 25° N 19:48:11 25° N
STARLINK-1114 4.4 19:46:36 10° NW 19:50:31 39° NNE 19:50:36 39° NNE
STARLINK-1126 3.8 19:46:41 10° WNW 19:50:41 60° SW 19:50:44 60° SW
Cosmos 2154 Rocket 4.4 19:44:54 10° N 19:50:56 43° ENE 19:51:33 42° E
BREEZE-M DEB (TANK) 4.4 19:47:40 10° WNW 19:52:52 35° N 19:53:10 34° NNE
BREEZE M DEB (TANK) 3.6 19:41:53 10° SW 19:53:10 62° SSE 19:53:49 56° ESE
Resurs 01 Rocket 1.4 19:53:04 75° SE 19:53:24 83° ENE 19:57:49 10° NNW
IRIDIUM 104 4.3 19:48:45 10° N 19:53:59 80° W 19:56:26 32° S
STARLINK-1082 3.9 19:51:16 10° WNW 19:55:08 55° SW 19:55:08 55° SW
STARLINK-1130 (DARKSAT) 4.4 19:51:33 10° NW 19:55:22 41° NNE 19:55:22 41° NNE
Abrixas rocket 4.5 19:53:22 10° WSW 19:54:14 18° WSW 19:54:14 18° WSW
Cosmos 2369 Rocket 2.2 19:51:33 10° NNW 19:57:12 59° ENE 19:57:50 55° E
Cosmos 967 Rocket 4.5 19:52:54 10° SSW 19:59:09 58° ESE 20:05:31 10° NE
STARLINK-1100 4.2 19:55:52 10° WNW 19:59:31 49° WSW 19:59:31 49° WSW
STARLINK-1084 4.4 19:56:31 10° NW 20:00:09 43° NNE 20:00:09 43° NNE
SPOT 3 Rocket 4.4 20:00:43 21° SSW 20:03:57 47° W 20:09:00 10° NNW
STARLINK-1083 4.4 20:00:29 10° WNW 20:03:57 44° WSW 20:03:57 44° WSW
Cosmos 1726 3.7 20:06:30 29° N 20:06:30 29° N 20:08:25 10° N
STARLINK-1098 4.4 20:01:28 10° NW 20:04:55 44° N 20:04:55 44° N
Nadezhda 1 Rocket 4.0 20:06:17 56° SE 20:07:20 65° E 20:13:39 10° NNE
Meteor 1-21 Rocket 4.4 20:04:09 10° NNW 20:09:41 66° W 20:11:31 41° SSW
MOS 1 Rocket 4.1 20:08:53 10° N 20:14:01 59° WNW 20:19:07 11° SSW
Cosmos 1943 3.8 20:19:28 43° NE 20:19:28 43° NE 20:23:16 10° NNE
Cosmos 292 Rocket 3.9 20:14:37 10° NNW 20:19:07 69° WNW 20:19:07 69° WNW
Cosmos 1943 Rocket 2.2 20:16:54 10° NNW 20:22:24 67° WSW 20:22:51 64° SW
Cosmos 2074 Rocket 4.2 20:18:36 10° NNW 20:24:49 67° W 20:26:45 44° SSW
Cosmos 1953 4.2 20:29:29 26° W 20:30:10 28° WNW 20:33:38 10° NNW
SPOT 1/Viking Rocket 4.2 20:32:06 46° NNE 20:32:06 46° NNE 20:35:57 10° N
NOSS 3-3 (A) 3.9 20:26:22 10° SW 20:32:10 78° NW 20:38:43 10° NE
NOSS 3-3 (C) 3.9 20:26:28 10° SW 20:32:16 78° NW 20:38:49 10° NE
Spot 2 Rocket 3.8 20:33:06 66° NNW 20:33:06 66° NNW 20:37:32 10° NNW
Cosmos 1610 Rocket 4.4 20:32:38 10° N 20:38:53 79° W 20:39:03 79° WSW
Terra 3.8 20:49:36 21° NNE 20:49:36 21° NNE 20:51:24 10° N
Cosmos 2341 Rocket 4.3 20:48:44 10° N 20:53:51 58° NNE 20:53:51 58° NNE
ATLAS 2AS CENTAUR R/B 3.1 20:50:32 10° NNW 20:57:42 56° NE 20:57:42 56° NE
Aureole 1 Rocket 4.4 21:07:14 78° N 21:07:14 78° N 21:13:36 10° NNE
COSMOS 2455 4.2 21:07:17 10° NNW 21:11:09 31° NNE 21:11:09 31° NNE
Cosmos 2369 Rocket 4.3 21:36:40 10° NW 21:39:39 19° W 21:39:39 19° W
